Year,Month,Day,Hour,Minute,Value (Times are PST for temperature in C)
2006,07,22,00,00,23.30
2006,07,22,00,01,23.30
2006,07,22,00,02,23.40
2006,07,22,00,03,23.50
2006,07,22,00,04,23.60
2006,07,22,00,05,23.60
2006,07,22,00,06,23.60
2006,07,22,00,07,23.70
2006,07,22,00,08,23.70
2006,07,22,00,09,23.70
2006,07,22,00,10,23.70
2006,07,22,00,11,23.70
2006,07,22,00,12,23.70
2006,07,22,00,13,23.60
2006,07,22,00,14,23.60
2006,07,22,00,15,23.60
2006,07,22,00,16,23.60
2006,07,22,00,17,23.60
2006,07,22,00,18,23.60
2006,07,22,00,19,23.60
2006,07,22,00,20,23.70
2006,07,22,00,21,23.70
2006,07,22,00,22,23.70
2006,07,22,00,23,23.70
2006,07,22,00,24,23.70
2006,07,22,00,25,23.70
2006,07,22,00,26,23.70
2006,07,22,00,27,23.70
2006,07,22,00,28,23.70
2006,07,22,00,29,23.70
2006,07,22,00,30,23.70
2006,07,22,00,31,23.70
2006,07,22,00,32,23.70
2006,07,22,00,33,23.70
2006,07,22,00,34,23.70
2006,07,22,00,35,23.70
2006,07,22,00,36,23.70
2006,07,22,00,37,23.70
2006,07,22,00,38,23.70
2006,07,22,00,39,23.60
2006,07,22,00,40,23.60
2006,07,22,00,41,23.60
2006,07,22,00,42,23.40
2006,07,22,00,43,23.40
2006,07,22,00,44,23.30
2006,07,22,00,45,23.30
2006,07,22,00,46,23.20
2006,07,22,00,47,23.20
2006,07,22,00,48,23.10
2006,07,22,00,49,23.00
2006,07,22,00,50,22.90
2006,07,22,00,51,22.90
2006,07,22,00,52,22.90
2006,07,22,00,53,22.80
2006,07,22,00,54,22.70
2006,07,22,00,55,22.60
2006,07,22,00,56,22.60
2006,07,22,00,57,22.50
2006,07,22,00,58,22.40
2006,07,22,00,59,22.40
2006,07,22,01,00,22.40
2006,07,22,01,01,22.40
2006,07,22,01,02,22.40
2006,07,22,01,03,22.40
2006,07,22,01,04,22.40
2006,07,22,01,05,22.50
2006,07,22,01,06,22.50
2006,07,22,01,07,22.50
2006,07,22,01,08,22.50
2006,07,22,01,09,22.50
2006,07,22,01,10,22.50
2006,07,22,01,11,22.50
2006,07,22,01,12,22.50
2006,07,22,01,13,22.40
2006,07,22,01,14,22.40
2006,07,22,01,15,22.30
2006,07,22,01,16,22.20
2006,07,22,01,17,22.10
2006,07,22,01,18,22.00
2006,07,22,01,19,21.90
2006,07,22,01,20,21.90
2006,07,22,01,21,21.90
2006,07,22,01,22,21.90
2006,07,22,01,23,21.80
2006,07,22,01,24,21.80
2006,07,22,01,25,21.80
2006,07,22,01,26,21.80
2006,07,22,01,27,21.80
2006,07,22,01,28,21.80
2006,07,22,01,29,21.80
2006,07,22,01,30,21.80
2006,07,22,01,31,21.80
2006,07,22,01,32,21.70
2006,07,22,01,33,21.70
2006,07,22,01,34,21.70
2006,07,22,01,35,21.70
2006,07,22,01,36,21.70
2006,07,22,01,37,21.60
2006,07,22,01,38,21.60
2006,07,22,01,39,21.60
2006,07,22,01,40,21.50
2006,07,22,01,41,21.40
2006,07,22,01,42,21.40
2006,07,22,01,43,21.30
2006,07,22,01,44,21.30
2006,07,22,01,45,21.30
2006,07,22,01,46,21.20
2006,07,22,01,47,21.20
2006,07,22,01,48,21.10
2006,07,22,01,49,21.10
2006,07,22,01,50,21.10
2006,07,22,01,51,21.10
2006,07,22,01,52,21.10
2006,07,22,01,53,21.10
2006,07,22,01,54,21.10
2006,07,22,01,55,21.10
2006,07,22,01,56,21.10
2006,07,22,01,57,21.10
2006,07,22,01,58,21.10
2006,07,22,01,59,21.10
2006,07,22,02,00,21.00
2006,07,22,02,01,21.00
2006,07,22,02,02,20.90
2006,07,22,02,03,20.90
2006,07,22,02,04,20.90
2006,07,22,02,05,20.90
2006,07,22,02,06,20.90
2006,07,22,02,07,20.90
2006,07,22,02,08,20.90
2006,07,22,02,09,20.90
2006,07,22,02,10,20.80
2006,07,22,02,11,20.80
2006,07,22,02,12,20.80
2006,07,22,02,13,20.80
2006,07,22,02,14,20.80
2006,07,22,02,15,20.80
2006,07,22,02,16,20.80
2006,07,22,02,17,20.80
2006,07,22,02,18,20.80
2006,07,22,02,19,20.90
2006,07,22,02,20,20.90
2006,07,22,02,21,20.90
2006,07,22,02,22,21.00
2006,07,22,02,23,21.00
2006,07,22,02,24,21.00
2006,07,22,02,25,21.10
2006,07,22,02,26,21.10
2006,07,22,02,27,21.10
2006,07,22,02,28,21.20
2006,07,22,02,29,21.20
2006,07,22,02,30,21.30
2006,07,22,02,31,21.30
2006,07,22,02,32,21.40
2006,07,22,02,33,21.50
2006,07,22,02,34,21.60
2006,07,22,02,35,21.70
2006,07,22,02,36,21.70
2006,07,22,02,37,21.60
2006,07,22,02,38,21.60
2006,07,22,02,39,21.60
2006,07,22,02,40,21.60
2006,07,22,02,41,21.60
2006,07,22,02,42,21.60
2006,07,22,02,43,21.60
2006,07,22,02,44,21.60
2006,07,22,02,45,21.50
2006,07,22,02,46,21.40
2006,07,22,02,47,21.40
2006,07,22,02,48,21.40
2006,07,22,02,49,21.40
2006,07,22,02,50,21.40
2006,07,22,02,51,21.40
2006,07,22,02,52,21.40
2006,07,22,02,53,21.40
2006,07,22,02,54,21.40
2006,07,22,02,55,21.40
2006,07,22,02,56,21.30
2006,07,22,02,57,21.30
2006,07,22,02,58,21.30
2006,07,22,02,59,21.30
2006,07,22,03,00,21.30
2006,07,22,03,01,21.30
2006,07,22,03,02,21.30
2006,07,22,03,03,21.30
2006,07,22,03,04,21.30
2006,07,22,03,05,21.30
2006,07,22,03,06,21.30
2006,07,22,03,07,21.30
2006,07,22,03,08,21.30
2006,07,22,03,09,21.30
2006,07,22,03,10,21.20
2006,07,22,03,11,21.20
2006,07,22,03,12,21.20
2006,07,22,03,13,21.10
2006,07,22,03,14,21.10
2006,07,22,03,15,21.00
2006,07,22,03,16,21.00
2006,07,22,03,17,21.00
2006,07,22,03,18,21.00
2006,07,22,03,19,21.00
2006,07,22,03,20,21.00
2006,07,22,03,21,21.00
2006,07,22,03,22,20.90
2006,07,22,03,23,20.90
2006,07,22,03,24,20.90
2006,07,22,03,25,20.90
2006,07,22,03,26,20.90
2006,07,22,03,27,20.90
2006,07,22,03,28,20.90
2006,07,22,03,29,20.90
2006,07,22,03,30,20.90
2006,07,22,03,31,20.90
2006,07,22,03,32,20.90
2006,07,22,03,33,20.90
2006,07,22,03,34,21.00
2006,07,22,03,35,21.00
2006,07,22,03,36,21.00
2006,07,22,03,37,21.10
2006,07,22,03,38,21.20
2006,07,22,03,39,21.20
2006,07,22,03,40,21.30
2006,07,22,03,41,21.30
2006,07,22,03,42,21.30
2006,07,22,03,43,21.40
2006,07,22,03,44,21.40
2006,07,22,03,45,21.50
2006,07,22,03,46,21.60
2006,07,22,03,47,21.60
2006,07,22,03,48,21.60
2006,07,22,03,49,21.60
2006,07,22,03,50,21.60
2006,07,22,03,51,21.60
2006,07,22,03,52,21.50
2006,07,22,03,53,21.40
2006,07,22,03,54,21.40
2006,07,22,03,55,21.40
2006,07,22,03,56,21.30
2006,07,22,03,57,21.30
2006,07,22,03,58,21.30
2006,07,22,03,59,21.30
2006,07,22,04,00,21.30
2006,07,22,04,01,21.30
2006,07,22,04,02,21.30
2006,07,22,04,03,21.20
2006,07,22,04,04,21.20
2006,07,22,04,05,21.20
2006,07,22,04,06,21.20
2006,07,22,04,07,21.20
2006,07,22,04,08,21.10
2006,07,22,04,09,21.20
2006,07,22,04,10,21.20
2006,07,22,04,11,21.20
2006,07,22,04,12,21.20
2006,07,22,04,13,21.30
2006,07,22,04,14,21.30
2006,07,22,04,15,21.30
2006,07,22,04,16,21.40
2006,07,22,04,17,21.40
2006,07,22,04,18,21.40
2006,07,22,04,19,21.40
2006,07,22,04,20,21.40
2006,07,22,04,21,21.50
2006,07,22,04,22,21.60
2006,07,22,04,23,21.60
2006,07,22,04,24,21.60
2006,07,22,04,25,21.60
2006,07,22,04,26,21.60
2006,07,22,04,27,21.60
2006,07,22,04,28,21.60
2006,07,22,04,29,21.60
2006,07,22,04,30,21.60
2006,07,22,04,31,21.60
2006,07,22,04,32,21.70
2006,07,22,04,33,21.70
2006,07,22,04,34,21.70
2006,07,22,04,35,21.70
2006,07,22,04,36,21.70
2006,07,22,04,37,21.70
2006,07,22,04,38,21.70
2006,07,22,04,39,21.80
2006,07,22,04,40,21.80
2006,07,22,04,41,21.80
2006,07,22,04,42,21.70
2006,07,22,04,43,21.70
2006,07,22,04,44,21.70
2006,07,22,04,45,21.60
2006,07,22,04,46,21.60
2006,07,22,04,47,21.60
2006,07,22,04,48,21.60
2006,07,22,04,49,21.60
2006,07,22,04,50,21.60
2006,07,22,04,51,21.60
2006,07,22,04,52,21.50
2006,07,22,04,53,21.40
2006,07,22,04,54,21.40
2006,07,22,04,55,21.30
2006,07,22,04,56,21.30
2006,07,22,04,57,21.30
2006,07,22,04,58,21.30
2006,07,22,04,59,21.30
2006,07,22,05,00,21.30
2006,07,22,05,01,21.30
2006,07,22,05,02,21.30
2006,07,22,05,03,21.30
2006,07,22,05,04,21.30
2006,07,22,05,05,21.30
2006,07,22,05,06,21.30
2006,07,22,05,07,21.30
2006,07,22,05,08,21.30
2006,07,22,05,09,21.30
2006,07,22,05,10,21.20
2006,07,22,05,11,21.20
2006,07,22,05,12,21.20
2006,07,22,05,13,21.20
2006,07,22,05,14,21.20
2006,07,22,05,15,21.20
2006,07,22,05,16,21.20
2006,07,22,05,17,21.10
2006,07,22,05,18,21.10
2006,07,22,05,19,21.10
2006,07,22,05,20,21.00
2006,07,22,05,21,21.00
2006,07,22,05,22,21.00
2006,07,22,05,23,21.00
2006,07,22,05,24,20.90
2006,07,22,05,25,20.90
2006,07,22,05,26,20.90
2006,07,22,05,27,20.80
2006,07,22,05,28,20.80
2006,07,22,05,29,20.80
2006,07,22,05,30,20.80
2006,07,22,05,31,20.70
2006,07,22,05,32,20.70
2006,07,22,05,33,20.60
2006,07,22,05,34,20.50
2006,07,22,05,35,20.50
2006,07,22,05,36,20.50
2006,07,22,05,37,20.40
2006,07,22,05,38,20.40
2006,07,22,05,39,20.30
2006,07,22,05,40,20.30
2006,07,22,05,41,20.40
2006,07,22,05,42,20.50
2006,07,22,05,43,20.70
2006,07,22,05,44,20.80
2006,07,22,05,45,21.00
2006,07,22,05,46,21.00
2006,07,22,05,47,21.00
2006,07,22,05,48,21.10
2006,07,22,05,49,21.10
2006,07,22,05,50,21.10
2006,07,22,05,51,21.10
2006,07,22,05,52,21.10
2006,07,22,05,53,21.10
2006,07,22,05,54,21.10
2006,07,22,05,55,21.00
2006,07,22,05,56,21.00
2006,07,22,05,57,21.00
2006,07,22,05,58,20.90
2006,07,22,05,59,20.90
2006,07,22,06,00,20.80
2006,07,22,06,01,20.70
2006,07,22,06,02,20.60
2006,07,22,06,03,20.40
2006,07,22,06,04,20.20
2006,07,22,06,05,20.10
2006,07,22,06,06,19.90
2006,07,22,06,07,19.90
2006,07,22,06,08,19.80
2006,07,22,06,09,19.70
2006,07,22,06,10,19.60
2006,07,22,06,11,19.60
2006,07,22,06,12,19.50
2006,07,22,06,13,19.50
2006,07,22,06,14,19.50
2006,07,22,06,15,19.50
2006,07,22,06,16,19.40
2006,07,22,06,17,19.40
2006,07,22,06,18,19.40
2006,07,22,06,19,19.40
2006,07,22,06,20,19.40
2006,07,22,06,21,19.40
2006,07,22,06,22,19.40
2006,07,22,06,23,19.40
2006,07,22,06,24,19.40
2006,07,22,06,25,19.40
2006,07,22,06,26,19.40
2006,07,22,06,27,19.50
2006,07,22,06,28,19.50
2006,07,22,06,29,19.50
2006,07,22,06,30,19.50
2006,07,22,06,31,19.50
2006,07,22,06,32,19.50
2006,07,22,06,33,19.60
2006,07,22,06,34,19.60
2006,07,22,06,35,19.60
2006,07,22,06,36,19.60
2006,07,22,06,37,19.60
2006,07,22,06,38,19.60
2006,07,22,06,39,19.70
2006,07,22,06,40,19.70
2006,07,22,06,41,19.70
2006,07,22,06,42,19.80
2006,07,22,06,43,19.80
2006,07,22,06,44,19.80
2006,07,22,06,45,19.90
2006,07,22,06,46,19.90
2006,07,22,06,47,19.90
2006,07,22,06,48,19.90
2006,07,22,06,49,20.00
2006,07,22,06,50,20.10
2006,07,22,06,51,20.10
2006,07,22,06,52,20.20
2006,07,22,06,53,20.20
2006,07,22,06,54,20.20
2006,07,22,06,55,20.30
2006,07,22,06,56,20.40
2006,07,22,06,57,20.50
2006,07,22,06,58,20.50
2006,07,22,06,59,20.60
2006,07,22,07,00,20.70
2006,07,22,07,01,20.80
2006,07,22,07,02,20.80
2006,07,22,07,03,20.90
2006,07,22,07,04,20.90
2006,07,22,07,05,21.00
2006,07,22,07,06,21.00
2006,07,22,07,07,21.00
2006,07,22,07,08,21.10
2006,07,22,07,09,21.10
2006,07,22,07,10,21.20
2006,07,22,07,11,21.20
2006,07,22,07,12,21.30
2006,07,22,07,13,21.30
2006,07,22,07,14,21.40
2006,07,22,07,15,21.50
2006,07,22,07,16,21.60
2006,07,22,07,17,21.70
2006,07,22,07,18,21.80
2006,07,22,07,19,21.90
2006,07,22,07,20,21.90
2006,07,22,07,21,22.00
2006,07,22,07,22,22.10
2006,07,22,07,23,22.10
2006,07,22,07,24,22.20
2006,07,22,07,25,22.20
2006,07,22,07,26,22.30
2006,07,22,07,27,22.30
2006,07,22,07,28,22.40
2006,07,22,07,29,22.50
2006,07,22,07,30,22.50
2006,07,22,07,31,22.50
2006,07,22,07,32,22.60
2006,07,22,07,33,22.60
2006,07,22,07,34,22.50
2006,07,22,07,35,22.40
2006,07,22,07,36,22.30
2006,07,22,07,37,22.30
2006,07,22,07,38,22.20
2006,07,22,07,39,22.20
2006,07,22,07,40,22.20
2006,07,22,07,41,22.10
2006,07,22,07,42,22.10
2006,07,22,07,43,22.10
2006,07,22,07,44,22.10
2006,07,22,07,45,22.10
2006,07,22,07,46,22.10
2006,07,22,07,47,22.10
2006,07,22,07,48,22.20
2006,07,22,07,49,22.20
2006,07,22,07,50,22.20
2006,07,22,07,51,22.20
2006,07,22,07,52,22.20
2006,07,22,07,53,22.30
2006,07,22,07,54,22.30
2006,07,22,07,55,22.30
2006,07,22,07,56,22.40
2006,07,22,07,57,22.40
2006,07,22,07,58,22.50
2006,07,22,07,59,22.50
2006,07,22,08,00,22.60
2006,07,22,08,01,22.60
2006,07,22,08,02,22.70
2006,07,22,08,03,22.70
2006,07,22,08,04,22.80
2006,07,22,08,05,22.90
2006,07,22,08,06,22.90
2006,07,22,08,07,23.00
2006,07,22,08,08,23.10
2006,07,22,08,09,23.20
2006,07,22,08,10,23.20
2006,07,22,08,11,23.30
2006,07,22,08,12,23.30
2006,07,22,08,13,23.30
2006,07,22,08,14,23.30
2006,07,22,08,15,23.30
2006,07,22,08,16,23.30
2006,07,22,08,17,23.30
2006,07,22,08,18,23.30
2006,07,22,08,19,23.30
2006,07,22,08,20,23.30
2006,07,22,08,21,23.30
2006,07,22,08,22,23.30
2006,07,22,08,23,23.30
2006,07,22,08,24,23.30
2006,07,22,08,25,23.30
2006,07,22,08,26,23.30
2006,07,22,08,27,23.20
2006,07,22,08,28,23.10
2006,07,22,08,29,23.10
2006,07,22,08,30,23.10
2006,07,22,08,31,23.00
2006,07,22,08,32,22.90
2006,07,22,08,33,22.90
2006,07,22,08,34,22.90
2006,07,22,08,35,22.90
2006,07,22,08,36,22.90
2006,07,22,08,37,22.80
2006,07,22,08,38,22.80
2006,07,22,08,39,22.80
2006,07,22,08,40,22.80
2006,07,22,08,41,22.90
2006,07,22,08,42,22.90
2006,07,22,08,43,22.90
2006,07,22,08,44,23.00
2006,07,22,08,45,23.20
2006,07,22,08,46,23.30
2006,07,22,08,47,23.50
2006,07,22,08,48,23.60
2006,07,22,08,49,23.70
2006,07,22,08,50,23.80
2006,07,22,08,51,23.80
2006,07,22,08,52,23.80
2006,07,22,08,53,23.80
2006,07,22,08,54,23.70
2006,07,22,08,55,23.70
2006,07,22,08,56,23.60
2006,07,22,08,57,23.50
2006,07,22,08,58,23.40
2006,07,22,08,59,23.30
2006,07,22,09,00,23.30
2006,07,22,09,01,23.30
2006,07,22,09,02,23.30
2006,07,22,09,03,23.30
2006,07,22,09,04,23.30
2006,07,22,09,05,23.40
2006,07,22,09,06,23.50
2006,07,22,09,07,23.60
2006,07,22,09,08,23.60
2006,07,22,09,09,23.60
2006,07,22,09,10,23.60
2006,07,22,09,11,23.70
2006,07,22,09,12,23.70
2006,07,22,09,13,23.80
2006,07,22,09,14,23.80
2006,07,22,09,15,23.80
2006,07,22,09,16,23.80
2006,07,22,09,17,23.80
2006,07,22,09,18,23.90
2006,07,22,09,19,24.00
2006,07,22,09,20,24.10
2006,07,22,09,21,24.10
2006,07,22,09,22,24.10
2006,07,22,09,23,24.10
2006,07,22,09,24,24.10
2006,07,22,09,25,24.10
2006,07,22,09,26,24.20
2006,07,22,09,27,24.20
2006,07,22,09,28,24.10
2006,07,22,09,29,24.10
2006,07,22,09,30,24.10
2006,07,22,09,31,24.10
2006,07,22,09,32,24.00
2006,07,22,09,33,23.90
2006,07,22,09,34,23.90
2006,07,22,09,35,23.90
2006,07,22,09,36,23.90
2006,07,22,09,37,24.10
2006,07,22,09,38,24.10
2006,07,22,09,39,24.10
2006,07,22,09,40,24.00
2006,07,22,09,41,23.90
2006,07,22,09,42,23.80
2006,07,22,09,43,23.90
2006,07,22,09,44,24.00
2006,07,22,09,45,24.10
2006,07,22,09,46,24.10
2006,07,22,09,47,24.10
2006,07,22,09,48,24.10
2006,07,22,09,49,24.10
2006,07,22,09,50,24.10
2006,07,22,09,51,24.10
2006,07,22,09,52,24.10
2006,07,22,09,53,24.10
2006,07,22,09,54,24.10
2006,07,22,09,55,24.10
2006,07,22,09,56,24.10
2006,07,22,09,57,24.10
2006,07,22,09,58,24.10
2006,07,22,09,59,24.20
2006,07,22,10,00,24.30
2006,07,22,10,01,24.40
2006,07,22,10,02,24.40
2006,07,22,10,03,24.40
2006,07,22,10,04,24.50
2006,07,22,10,05,24.50
2006,07,22,10,06,24.40
2006,07,22,10,07,24.30
2006,07,22,10,08,24.40
2006,07,22,10,09,24.40
2006,07,22,10,10,24.50
2006,07,22,10,11,24.60
2006,07,22,10,12,24.60
2006,07,22,10,13,24.70
2006,07,22,10,14,24.60
2006,07,22,10,15,24.50
2006,07,22,10,16,24.40
2006,07,22,10,17,24.30
2006,07,22,10,18,24.20
2006,07,22,10,19,24.20
2006,07,22,10,20,24.20
2006,07,22,10,21,24.20
2006,07,22,10,22,24.20
2006,07,22,10,23,24.20
2006,07,22,10,24,24.30
2006,07,22,10,25,24.30
2006,07,22,10,26,24.40
2006,07,22,10,27,24.40
2006,07,22,10,28,24.50
2006,07,22,10,29,24.50
2006,07,22,10,30,24.50
2006,07,22,10,31,24.50
2006,07,22,10,32,24.50
2006,07,22,10,33,24.50
2006,07,22,10,34,24.60
2006,07,22,10,35,24.60
2006,07,22,10,36,24.50
2006,07,22,10,37,24.50
2006,07,22,10,38,24.50
2006,07,22,10,39,24.50
2006,07,22,10,40,24.50
2006,07,22,10,41,24.70
2006,07,22,10,42,24.80
2006,07,22,10,43,24.80
2006,07,22,10,44,24.90
2006,07,22,10,45,25.00
2006,07,22,10,46,25.10
2006,07,22,10,47,25.20
2006,07,22,10,48,25.30
2006,07,22,10,49,25.30
2006,07,22,10,50,25.20
2006,07,22,10,51,25.10
2006,07,22,10,52,25.00
2006,07,22,10,53,24.80
2006,07,22,10,54,24.40
2006,07,22,10,55,24.00
2006,07,22,10,56,23.80
2006,07,22,10,57,23.50
2006,07,22,10,58,23.20
2006,07,22,10,59,23.00
2006,07,22,11,00,22.80
2006,07,22,11,01,22.80
2006,07,22,11,02,22.80
2006,07,22,11,03,22.80
2006,07,22,11,04,22.80
2006,07,22,11,05,22.80
2006,07,22,11,06,22.80
2006,07,22,11,07,22.80
2006,07,22,11,08,22.90
2006,07,22,11,09,23.00
2006,07,22,11,10,23.20
2006,07,22,11,11,23.30
2006,07,22,11,12,23.40
2006,07,22,11,13,23.50
2006,07,22,11,14,23.60
2006,07,22,11,15,23.70
2006,07,22,11,16,23.80
2006,07,22,11,17,23.90
2006,07,22,11,18,23.90
2006,07,22,11,19,24.00
2006,07,22,11,20,23.90
2006,07,22,11,21,23.90
2006,07,22,11,22,23.90
2006,07,22,11,23,24.10
2006,07,22,11,24,24.20
2006,07,22,11,25,24.40
2006,07,22,11,26,24.50
2006,07,22,11,27,24.60
2006,07,22,11,28,24.70
2006,07,22,11,29,24.80
2006,07,22,11,30,24.90
2006,07,22,11,31,24.90
2006,07,22,11,32,24.90
2006,07,22,11,33,24.80
2006,07,22,11,34,24.90
2006,07,22,11,35,24.90
2006,07,22,11,36,24.90
2006,07,22,11,37,25.10
2006,07,22,11,38,25.20
2006,07,22,11,39,25.30
2006,07,22,11,40,25.40
2006,07,22,11,41,25.50
2006,07,22,11,42,25.70
2006,07,22,11,43,25.70
2006,07,22,11,44,25.70
2006,07,22,11,45,25.80
2006,07,22,11,46,25.80
2006,07,22,11,47,25.80
2006,07,22,11,48,25.90
2006,07,22,11,49,25.90
2006,07,22,11,50,25.90
2006,07,22,11,51,26.00
2006,07,22,11,52,26.00
2006,07,22,11,53,26.00
2006,07,22,11,54,26.00
2006,07,22,11,55,26.00
2006,07,22,11,56,25.90
2006,07,22,11,57,25.80
2006,07,22,11,58,25.80
2006,07,22,11,59,25.70
2006,07,22,12,00,25.60
2006,07,22,12,01,25.60
2006,07,22,12,02,25.70
2006,07,22,12,03,25.80
2006,07,22,12,04,25.80
2006,07,22,12,05,25.80
2006,07,22,12,06,25.80
2006,07,22,12,07,25.70
2006,07,22,12,08,25.60
2006,07,22,12,09,25.50
2006,07,22,12,10,25.50
2006,07,22,12,11,25.50
2006,07,22,12,12,25.50
2006,07,22,12,13,25.60
2006,07,22,12,14,25.70
2006,07,22,12,15,25.80
2006,07,22,12,16,25.90
2006,07,22,12,17,25.90
2006,07,22,12,18,26.00
2006,07,22,12,19,26.10
2006,07,22,12,20,26.00
2006,07,22,12,21,26.00
2006,07,22,12,22,26.00
2006,07,22,12,23,26.20
2006,07,22,12,24,26.30
2006,07,22,12,25,26.40
2006,07,22,12,26,26.40
2006,07,22,12,27,26.40
2006,07,22,12,28,26.40
2006,07,22,12,29,26.30
2006,07,22,12,30,26.20
2006,07,22,12,31,26.10
2006,07,22,12,32,26.00
2006,07,22,12,33,26.10
2006,07,22,12,34,26.10
2006,07,22,12,35,26.10
2006,07,22,12,36,26.30
2006,07,22,12,37,26.50
2006,07,22,12,38,26.60
2006,07,22,12,39,26.60
2006,07,22,12,40,26.80
2006,07,22,12,41,26.90
2006,07,22,12,42,27.00
2006,07,22,12,43,27.10
2006,07,22,12,44,27.20
2006,07,22,12,45,27.30
2006,07,22,12,46,27.30
2006,07,22,12,47,27.30
2006,07,22,12,48,27.30
2006,07,22,12,49,27.30
2006,07,22,12,50,27.30
2006,07,22,12,51,27.20
2006,07,22,12,52,27.20
2006,07,22,12,53,27.20
2006,07,22,12,54,27.20
2006,07,22,12,55,27.20
2006,07,22,12,56,27.30
2006,07,22,12,57,27.30
2006,07,22,12,58,27.30
2006,07,22,12,59,27.30
2006,07,22,13,00,27.40
2006,07,22,13,01,27.40
2006,07,22,13,02,27.60
2006,07,22,13,03,27.70
2006,07,22,13,04,27.70
2006,07,22,13,05,27.70
2006,07,22,13,06,27.80
2006,07,22,13,07,27.80
2006,07,22,13,08,27.90
2006,07,22,13,09,27.90
2006,07,22,13,10,27.90
2006,07,22,13,11,27.90
2006,07,22,13,12,27.90
2006,07,22,13,13,27.80
2006,07,22,13,14,27.80
2006,07,22,13,15,27.90
2006,07,22,13,16,28.10
2006,07,22,13,17,28.20
2006,07,22,13,18,28.40
2006,07,22,13,19,28.60
2006,07,22,13,20,28.70
2006,07,22,13,21,28.80
2006,07,22,13,22,28.90
2006,07,22,13,23,28.90
2006,07,22,13,24,28.90
2006,07,22,13,25,28.80
2006,07,22,13,26,28.80
2006,07,22,13,27,28.80
2006,07,22,13,28,28.80
2006,07,22,13,29,28.80
2006,07,22,13,30,28.80
2006,07,22,13,31,28.90
2006,07,22,13,32,28.90
2006,07,22,13,33,28.90
2006,07,22,13,34,29.00
2006,07,22,13,35,29.10
2006,07,22,13,36,29.10
2006,07,22,13,37,29.10
2006,07,22,13,38,29.20
2006,07,22,13,39,29.10
2006,07,22,13,40,29.00
2006,07,22,13,41,28.90
2006,07,22,13,42,28.90
2006,07,22,13,43,28.90
2006,07,22,13,44,28.80
2006,07,22,13,45,28.80
2006,07,22,13,46,28.90
2006,07,22,13,47,29.00
2006,07,22,13,48,29.10
2006,07,22,13,49,29.20
2006,07,22,13,50,29.30
2006,07,22,13,51,29.40
2006,07,22,13,52,29.40
2006,07,22,13,53,29.40
2006,07,22,13,54,29.40
2006,07,22,13,55,29.60
2006,07,22,13,56,29.70
2006,07,22,13,57,29.50
2006,07,22,13,58,29.40
2006,07,22,13,59,29.40
2006,07,22,14,00,29.40
2006,07,22,14,01,29.30
2006,07,22,14,02,29.30
2006,07,22,14,03,29.40
2006,07,22,14,04,29.30
2006,07,22,14,05,29.40
2006,07,22,14,06,29.30
2006,07,22,14,07,29.20
2006,07,22,14,08,29.30
2006,07,22,14,09,29.30
2006,07,22,14,10,29.40
2006,07,22,14,11,29.50
2006,07,22,14,12,29.70
2006,07,22,14,13,29.80
2006,07,22,14,14,29.80
2006,07,22,14,15,29.70
2006,07,22,14,16,29.60
2006,07,22,14,17,29.50
2006,07,22,14,18,29.30
2006,07,22,14,19,29.20
2006,07,22,14,20,29.20
2006,07,22,14,21,29.20
2006,07,22,14,22,29.30
2006,07,22,14,23,29.40
2006,07,22,14,24,29.50
2006,07,22,14,25,29.50
2006,07,22,14,26,29.60
2006,07,22,14,27,29.80
2006,07,22,14,28,29.90
2006,07,22,14,29,29.80
2006,07,22,14,30,29.70
2006,07,22,14,31,29.70
2006,07,22,14,32,29.60
2006,07,22,14,33,29.70
2006,07,22,14,34,29.80
2006,07,22,14,35,29.80
2006,07,22,14,36,29.80
2006,07,22,14,37,29.80
2006,07,22,14,38,29.90
2006,07,22,14,39,30.00
2006,07,22,14,40,30.10
2006,07,22,14,41,30.10
2006,07,22,14,42,30.10
2006,07,22,14,43,30.20
2006,07,22,14,44,30.20
2006,07,22,14,45,30.10
2006,07,22,14,46,30.00
2006,07,22,14,47,30.00
2006,07,22,14,48,30.10
2006,07,22,14,49,30.10
2006,07,22,14,50,30.10
2006,07,22,14,51,30.10
2006,07,22,14,52,30.10
2006,07,22,14,53,30.20
2006,07,22,14,54,30.10
2006,07,22,14,55,30.10
2006,07,22,14,56,30.00
2006,07,22,14,57,29.90
2006,07,22,14,58,29.90
2006,07,22,14,59,29.90
2006,07,22,15,00,29.90
2006,07,22,15,01,30.00
2006,07,22,15,02,30.10
2006,07,22,15,03,29.90
2006,07,22,15,04,29.90
2006,07,22,15,05,29.80
2006,07,22,15,06,29.80
2006,07,22,15,07,29.90
2006,07,22,15,08,29.80
2006,07,22,15,09,29.80
2006,07,22,15,10,29.80
2006,07,22,15,11,29.80
2006,07,22,15,12,29.80
2006,07,22,15,13,29.80
2006,07,22,15,14,29.80
2006,07,22,15,15,29.80
2006,07,22,15,16,29.90
2006,07,22,15,17,30.10
2006,07,22,15,18,30.10
2006,07,22,15,19,30.20
2006,07,22,15,20,30.20
2006,07,22,15,21,30.20
2006,07,22,15,22,30.30
2006,07,22,15,23,30.20
2006,07,22,15,24,30.10
2006,07,22,15,25,30.00
2006,07,22,15,26,29.90
2006,07,22,15,27,29.80
2006,07,22,15,28,29.80
2006,07,22,15,29,29.90
2006,07,22,15,30,29.90
2006,07,22,15,31,29.90
2006,07,22,15,32,30.10
2006,07,22,15,33,30.10
2006,07,22,15,34,30.10
2006,07,22,15,35,30.10
2006,07,22,15,36,30.00
2006,07,22,15,37,30.00
2006,07,22,15,38,30.10
2006,07,22,15,39,30.00
2006,07,22,15,40,29.90
2006,07,22,15,41,29.80
2006,07,22,15,42,29.90
2006,07,22,15,43,29.90
2006,07,22,15,44,29.90
2006,07,22,15,45,29.80
2006,07,22,15,46,29.70
2006,07,22,15,47,29.70
2006,07,22,15,48,29.60
2006,07,22,15,49,29.50
2006,07,22,15,50,29.60
2006,07,22,15,51,29.60
2006,07,22,15,52,29.80
2006,07,22,15,53,29.80
2006,07,22,15,54,29.90
2006,07,22,15,55,29.90
2006,07,22,15,56,29.90
2006,07,22,15,57,29.80
2006,07,22,15,58,29.80
2006,07,22,15,59,29.90
2006,07,22,16,00,30.00
2006,07,22,16,01,30.20
2006,07,22,16,02,30.30
2006,07,22,16,03,30.40
2006,07,22,16,04,30.50
2006,07,22,16,05,30.70
2006,07,22,16,06,30.70
2006,07,22,16,07,30.80
2006,07,22,16,08,30.70
2006,07,22,16,09,30.70
2006,07,22,16,10,30.70
2006,07,22,16,11,30.50
2006,07,22,16,12,30.30
2006,07,22,16,13,30.20
2006,07,22,16,14,30.10
2006,07,22,16,15,30.10
2006,07,22,16,16,30.10
2006,07,22,16,17,30.20
2006,07,22,16,18,30.20
2006,07,22,16,19,30.20
2006,07,22,16,20,30.20
2006,07,22,16,21,30.20
2006,07,22,16,22,30.30
2006,07,22,16,23,30.20
2006,07,22,16,24,30.20
2006,07,22,16,25,30.20
2006,07,22,16,26,30.30
2006,07,22,16,27,30.50
2006,07,22,16,28,30.70
2006,07,22,16,29,30.80
2006,07,22,16,30,30.70
2006,07,22,16,31,30.60
2006,07,22,16,32,30.60
2006,07,22,16,33,30.50
2006,07,22,16,34,30.40
2006,07,22,16,35,30.40
2006,07,22,16,36,30.30
2006,07,22,16,37,30.30
2006,07,22,16,38,30.30
2006,07,22,16,39,30.10
2006,07,22,16,40,29.90
2006,07,22,16,41,29.80
2006,07,22,16,42,29.70
2006,07,22,16,43,29.60
2006,07,22,16,44,29.50
2006,07,22,16,45,29.50
2006,07,22,16,46,29.60
2006,07,22,16,47,29.70
2006,07,22,16,48,29.70
2006,07,22,16,49,29.70
2006,07,22,16,50,29.80
2006,07,22,16,51,29.90
2006,07,22,16,52,29.80
2006,07,22,16,53,29.60
2006,07,22,16,54,29.60
2006,07,22,16,55,29.60
2006,07,22,16,56,29.60
2006,07,22,16,57,29.60
2006,07,22,16,58,29.60
2006,07,22,16,59,29.60
2006,07,22,17,00,29.60
2006,07,22,17,01,29.60
2006,07,22,17,02,29.60
2006,07,22,17,03,29.50
2006,07,22,17,04,29.50
2006,07,22,17,05,29.60
2006,07,22,17,06,29.50
2006,07,22,17,07,29.60
2006,07,22,17,08,29.50
2006,07,22,17,09,29.60
2006,07,22,17,10,29.60
2006,07,22,17,11,29.60
2006,07,22,17,12,29.60
2006,07,22,17,13,29.70
2006,07,22,17,14,29.70
2006,07,22,17,15,29.70
2006,07,22,17,16,29.70
2006,07,22,17,17,29.70
2006,07,22,17,18,29.70
2006,07,22,17,19,29.70